"Pseudo-MPEC" for HKmOb2a

Created 2022 Aug 15 5:22:05 UT using Find_Orb

Click here for an explanation of pseudo-MPECs

 
 Astrometry: 
     HKmOb2a*KC2022 07 27XKGV(KVmItn7YfhAstrometry0eRMEH:U-X7byI4PD(Uv$tDo.D[221
     HKmOb2a KC2022 07 27P/!(cN'fCredacted;6s!([TQIT[m7jG3HBW=PUyZc(clickNjnq221
     HKmOb2a KC2022 07 27[ALc:L5PsL@A9hereicJ,m%_MD9forjLh5t9p;@YqMw5Wq;x8TAU221
     HKmOb2a KC2022 07 27$'^g)(N.Hc\3Q\FH6sQqA)explanationcP$r.+tlrWNS+6!nLq[221

Station data:
(221) IAS Observatory, Hakos  (S23.236367 E16.361700)  Namibia.  Observers D.
   Husar, L. Demetz. Measurer D. Husar. 0.2-m f/3 Riccardi-Honders + CCD0.5-m
   f/6.8 Corrected Dall-Kirkham + CCD.

Orbital elements:  HKmOb2a
   Perihelion 2022 Aug 14.48650 +/- 45.3 TT = 11:40:33 (JD 2459805.98650)
Epoch 2022 Jul 27.0 TT = JDT 2459787.5   Earth MOID: 0.2601   AutoNEOCP
M 354.40032688 +/- 20               (J2000 ecliptic)
n   0.30290601 +/- 0.27             Peri.    0.03200 +/- 70
a   2.19582360 +/- 1.3              Node   319.66120 +/- 51
e   0.4200339 +/- 0.261             Incl.   19.89452 +/- 9
P   3.25                   H 21.3   G  0.15   U 11.9  SR
q 1.27350316 +/- 0.254    Q 3.11814405 +/- 35.9
From 4 observations 2022 July 27 (22.4 min); mean residual 0".32
Residuals in arcseconds: 
220727 221  .12+  .39-    220727 221  .08-  .03+    
220727 221  .19-  .68+    220727 221  .15+  .32-    

Ephemerides (geocentric):
Date (UTC) HH   RA             Dec           delta  r     elong  mag " sig PA
---- --------  ------------   ------------  ------ ------ -----  --- --------
2022 08 15 05  21 01 32.947   -15 52 29.02  .26319 1.2735 171.1 19.5  70d  25
2022 08 15 06  21 01 29.452   -15 49 13.93  .26323 1.2735 171.1 19.5  70d  25
2022 08 15 07  21 01 25.961   -15 45 58.87  .26326 1.2735 171.0 19.5  70d  25
2022 08 15 08  21 01 22.474   -15 42 43.87  .26330 1.2735 171.0 19.5  70d  25
2022 08 15 09  21 01 18.993   -15 39 28.91  .26333 1.2735 170.9 19.5  70d  25
2022 08 15 10  21 01 15.516   -15 36 13.99  .26337 1.2735 170.9 19.5  70d  25
2022 08 15 11  21 01 12.044   -15 32 59.13  .26341 1.2735 170.8 19.5  71d  25
2022 08 15 12  21 01 08.577   -15 29 44.31  .26345 1.2735 170.8 19.5  71d  25
2022 08 15 13  21 01 05.115   -15 26 29.54  .26348 1.2735 170.7 19.5  71d  25
2022 08 15 14  21 01 01.657   -15 23 14.82  .26352 1.2735 170.7 19.5  71d  25
2022 08 15 15  21 00 58.205   -15 20 00.15  .26356 1.2736 170.6 19.5  71d  25
2022 08 15 16  21 00 54.757   -15 16 45.53  .26360 1.2736 170.6 19.5  71d  25
2022 08 15 17  21 00 51.314   -15 13 30.97  .26364 1.2736 170.5 19.5  71d  25
2022 08 15 18  21 00 47.876   -15 10 16.45  .26368 1.2736 170.5 19.5  71d  25
2022 08 15 19  21 00 44.443   -15 07 02.00  .26372 1.2736 170.5 19.5  71d  25
2022 08 15 20  21 00 41.015   -15 03 47.59  .26376 1.2736 170.4 19.5  71d  25
2022 08 15 21  21 00 37.591   -15 00 33.24  .26380 1.2736 170.4 19.5  71d  25
2022 08 15 22  21 00 34.173   -14 57 18.95  .26385 1.2736 170.3 19.5  71d  25
2022 08 15 23  21 00 30.759   -14 54 04.71  .26389 1.2736 170.3 19.5  71d  25
2022 08 16 00  21 00 27.351   -14 50 50.53  .26393 1.2736 170.2 19.5  71d  25
2022 08 16 01  21 00 23.947   -14 47 36.41  .26397 1.2736 170.2 19.5  71d  25
2022 08 16 02  21 00 20.549   -14 44 22.34  .26402 1.2736 170.1 19.5  71d  25
2022 08 16 03  21 00 17.155   -14 41 08.34  .26406 1.2736 170.1 19.5  71d  25
2022 08 16 04  21 00 13.766   -14 37 54.40  .26411 1.2736 170.0 19.5  71d  25
2022 08 16 05  21 00 10.382   -14 34 40.51  .26415 1.2736 170.0 19.5  71d  25
2022 08 16 06  21 00 07.004   -14 31 26.69  .26420 1.2736 169.9 19.5  71d  25
2022 08 16 07  21 00 03.630   -14 28 12.94  .26424 1.2736 169.9 19.5  71d  25
2022 08 16 08  21 00 00.261   -14 24 59.24  .26429 1.2736 169.8 19.5  71d  25
2022 08 16 09  20 59 56.898   -14 21 45.61  .26434 1.2736 169.8 19.5  71d  25
2022 08 16 10  20 59 53.539   -14 18 32.05  .26438 1.2736 169.7 19.5  71d  25
2022 08 16 11  20 59 50.185   -14 15 18.55  .26443 1.2737 169.7 19.5  71d  25
2022 08 16 12  20 59 46.837   -14 12 05.12  .26448 1.2737 169.6 19.5  71d  25
2022 08 16 13  20 59 43.494   -14 08 51.76  .26453 1.2737 169.6 19.5  71d  25
2022 08 16 14  20 59 40.155   -14 05 38.46  .26458 1.2737 169.5 19.5  71d  25
2022 08 16 15  20 59 36.822   -14 02 25.23  .26463 1.2737 169.5 19.5  71d  25
2022 08 16 16  20 59 33.494   -13 59 12.07  .26467 1.2737 169.4 19.5  71d  25
2022 08 16 17  20 59 30.171   -13 55 58.99  .26472 1.2737 169.4 19.5  71d  25
2022 08 16 18  20 59 26.853   -13 52 45.97  .26478 1.2737 169.3 19.5  71d  25
2022 08 16 19  20 59 23.540   -13 49 33.02  .26483 1.2737 169.3 19.5  71d  24
2022 08 16 20  20 59 20.232   -13 46 20.15  .26488 1.2737 169.2 19.5  72d  24
2022 08 16 21  20 59 16.930   -13 43 07.35  .26493 1.2737 169.1 19.5  72d  24
2022 08 16 22  20 59 13.633   -13 39 54.63  .26498 1.2737 169.1 19.5  72d  24
2022 08 16 23  20 59 10.340   -13 36 41.98  .26503 1.2737 169.0 19.6  72d  24
2022 08 17 00  20 59 07.054   -13 33 29.40  .26509 1.2737 169.0 19.6  72d  24
2022 08 17 01  20 59 03.772   -13 30 16.90  .26514 1.2738 168.9 19.6  72d  24
2022 08 17 02  20 59 00.495   -13 27 04.48  .26519 1.2738 168.9 19.6  72d  24
2022 08 17 03  20 58 57.224   -13 23 52.13  .26525 1.2738 168.8 19.6  72d  24
2022 08 17 04  20 58 53.958   -13 20 39.87  .26530 1.2738 168.8 19.6  72d  24